Home > Weather > Oakland > Past weeks

Flag for USA Past Weather in Oakland, California, USA — Yesterday and Last 2 Weeks

Now
64 °F

Passing clouds.


Feels Like: 64 °F
Forecast: 57 / 75 °F
Wind: 10 mph from Northwest

Location: Metro Oakland International Airport

Current Time: Jul 30, 2016 at 12:12:01 PM

Latest Report: Jul 30, 2016 at 10:53 AM


Visibility: 10 mi

Pressure: 29.85 "Hg

Humidity: 73%

Dew Point: 55 °F

Location of OaklandLocation

Past Weather in Oakland — Graph

°F

Oakland Temperature Yesterday

Maximum temperature yesterday: 73 °F (at 2:53 PM)
Minimum temperature yesterday: 57 °F (at 1:53 AM)
Average temperature yesterday: 63 °F

High & Low Weather Summary for the Past Weeks

 TemperatureHumidityPressure
High83 °F (Jul 26, 1:53 PM)97% (Jul 26, 5:53 AM)30.13 "Hg (Jul 26, 5:53 AM)
Low54 °F (Jul 23, 5:53 AM)38% (Jul 26, 4:53 PM)29.79 "Hg (Jul 29, 5:53 PM)
Average63 °F74%29.95 "Hg
* Reported Jul 15 10:53 AM — Jul 30 10:53 AM, Oakland, Weather by CustomWeather, © 2016

Note: Actual official high and low records may vary slightly from our data, if they occured in-between our weather recording intervals... More about our weather records

Advertising

Oakland Weather History for the Previous 24 Hours

Scroll right to see more
 ConditionsComfort  
Time TempWeatherWind HumidityBarometerVisibility
10:53 AM
Sat, Jul 30
64 °FPassing clouds.10 mph73%29.85 "Hg10 mi
9:53 AM62 °FPartly sunny.6 mph80%29.84 "Hg10 mi
8:53 AM60 °FLow clouds.3 mph86%29.84 "Hg10 mi
7:53 AM59 °FLow clouds.3 mph87%29.82 "Hg10 mi
6:53 AM58 °FLow clouds.5 mph90%29.81 "Hg10 mi
5:53 AM58 °FLow clouds.6 mph90%29.80 "Hg10 mi
4:53 AM58 °FLow clouds.6 mph90%29.79 "Hg10 mi
3:53 AM58 °FLow clouds.7 mph90%29.79 "Hg10 mi
2:53 AM58 °FLow clouds.6 mph93%29.80 "Hg10 mi
1:53 AM58 °FLow clouds.9 mph93%29.80 "Hg10 mi
1:02 AM58 °FPassing clouds.3 mph93%29.81 "Hg10 mi
12:53 AM58 °FPassing clouds.3 mph93%29.81 "Hg10 mi
11:53 PM
Fri, Jul 29
59 °FPassing clouds.6 mph90%29.81 "Hg10 mi
10:53 PM59 °FPassing clouds.7 mph90%29.81 "Hg10 mi
9:53 PM59 °FPassing clouds.7 mph90%29.82 "Hg10 mi
8:53 PM60 °FPassing clouds.10 mph86%29.80 "Hg10 mi
7:53 PM62 °FSunny.15 mph80%29.79 "Hg10 mi
6:53 PM65 °FSunny.18 mph73%29.79 "Hg10 mi
5:53 PM68 °FSunny.16 mph65%29.79 "Hg10 mi
4:53 PM70 °FSunny.16 mph61%29.80 "Hg10 mi
3:53 PM72 °FSunny.16 mph57%29.80 "Hg10 mi
2:53 PM73 °FSunny.15 mph53%29.82 "Hg10 mi
1:53 PM71 °FSunny.14 mph57%29.83 "Hg10 mi
12:53 PM71 °FSunny.15 mph61%29.85 "Hg10 mi
Weather by CustomWeather, © 2016

See weather overviewHow to use our weather pages